This demonstration page uses our WeatherBlox Daily Observations layout. Learn more.

Left ArrowRight Arrow

38.89511, -77.03637

Hourly Observations for January 13, 2019

Temp ( °F °C ) Dew Point ( °F °C ) Humidity (%) Winds ( mph kmh ) Pressure ( in mb ) Visibility ( mi km ) Precip ( " mm )
12:09 am 00:09 Cloudy with Light Snow 31 -0.6 27 -2.8 85 85 ENE 6 9 30.45 1031 3 4 0.00 0.03
12:16 am 00:16 Cloudy with Light Snow 31 -0.6 27 -2.8 85 85 ENE 6 9 30.45 1031 2 3 0.00 0.03
12:22 am 00:22 Cloudy with Light Snow 31 -0.6 27 -2.8 85 85 ENE 6 9 30.45 1031 2 3 0.01 0.25
12:52 am 00:52 Cloudy with Light Snow 31 -0.6 27 -2.8 85 85 E 5 7 30.44 1031 2 2 0.02 0.51
12:55 am 00:55 Cloudy with Light Snow 31 -0.6 27 -2.8 85 85 E 6 9 30.45 1031 3 4 0.00 0.03
1:01 am 01:01 Cloudy with Light Snow 31 -0.6 27 -2.8 85 85 E 6 9 30.45 1031 3 5 0.00 0.03
1:12 am 01:12 Cloudy with Light Snow 31 -0.6 27 -2.8 85 85 ENE 3 6 30.45 1031 4 6 0.00 0.03
1:23 am 01:23 Cloudy with Light Snow 31 -0.6 27 -2.8 85 85 E 5 7 30.45 1031 6 10 0.00 0.03
1:34 am 01:34 Cloudy with Light Snow 31 -0.6 27 -2.8 85 85 E 7 11 30.42 1030 2 3 0.01 0.25
1:40 am 01:40 Cloudy with Light Snow 31 -0.6 26 -3.3 82 82 E 7 11 30.42 1030 2 2 0.01 0.25
1:52 am 01:52 Cloudy with Light Snow 31 -0.6 27 -2.8 85 85 ENE 6 9 30.43 1030 1 2 0.02 0.51
1:57 am 01:57 Cloudy with Light Snow 31 -0.6 27 -2.8 85 85 ENE 6 9 30.42 1030 2 2 0.00 0.03
2:30 am 02:30 Cloudy with Light Snow 30 -1.1 27 -2.8 88 88 ENE 6 9 30.42 1030 1 2 0.03 0.76
2:35 am 02:35 Cloudy with Light Snow 30 -1.1 27 -2.8 88 88 ENE 7 11 30.42 1030 1 1 0.03 0.76
2:52 am 02:52 Cloudy with Light Snow 30 -1.1 27 -2.8 88 88 NE 8 13 30.42 1030 1 1 0.04 1.02
3:52 am 03:52 Cloudy with Snow 30 -1.1 26 -3.3 85 85 ENE 12 19 30.40 1030 1 1 0.05 1.27
4:03 am 04:03 Cloudy with Light Snow 30 -1.1 27 -2.8 88 88 ENE 9 15 30.39 1029 1 2 0.01 0.25
4:52 am 04:52 Cloudy with Light Snow 30 -1.1 26 -3.3 85 85 NE 10 17 30.38 1029 1 2 0.03 0.76
5:03 am 05:03 Cloudy with Light Snow 30 -1.1 26 -3.3 85 85 NNE 13 20 30.39 1029 1 2 0.01 0.25
5:11 am 05:11 Cloudy with Light Snow 30 -1.1 26 -3.3 85 85 NE 10 17 30.39 1029 1 2 0.01 0.25
5:44 am 05:44 Cloudy with Light Snow 30 -1.1 27 -2.8 88 88 NNE 6 9 30.39 1029 1 2 0.04 1.02
5:52 am 05:52 Cloudy with Light Snow 30 -1.1 26 -3.3 85 85 NE 8 13 30.38 1029 1 2 0.04 1.02
6:24 am 06:24 Cloudy with Light Snow 29 -1.7 26 -3.3 89 89 NE 9 15 30.39 1029 1 2 0.02 0.51
6:33 am 06:33 Cloudy with Light Snow 29 -1.7 26 -3.3 89 89 NE 9 15 30.39 1029 1 2 0.02 0.51
6:39 am 06:39 Cloudy with Light Snow 30 -1.1 26 -3.3 85 85 NE 12 19 30.39 1029 1 2 0.03 0.76
6:52 am 06:52 Cloudy with Light Snow 29 -1.7 26 -3.3 89 89 NE 12 19 30.38 1029 1 2 0.03 0.76
7:13 am 07:13 Cloudy with Light Snow 29 -1.7 26 -3.3 89 89 NE 12 19 30.39 1029 2 2 0.01 0.25
7:29 am 07:29 Cloudy with Light Snow 29 -1.7 26 -3.3 89 89 NNE 12 19 30.39 1029 2 3 0.02 0.51
7:39 am 07:39 Cloudy with Light Snow 29 -1.7 26 -3.3 89 89 NE 12 19 30.36 1028 2 3 0.02 0.51
7:52 am 07:52 Cloudy with Light Snow 30 -1.1 26 -3.3 85 85 NE 9 15 30.37 1029 1 2 0.03 0.76
8:18 am 08:18 Cloudy with Light Snow 30 -1.1 26 -3.3 85 85 NE 8 13 30.36 1028 1 1 0.01 0.25
8:31 am 08:31 Cloudy with Light Snow 30 -1.1 26 -3.3 85 85 NNE 10 17 30.36 1028 1 2 0.02 0.51
8:52 am 08:52 Cloudy with Light Snow 30 -1.1 26 -3.3 85 85 NE 12 19 30.35 1028 2 2 0.02 0.51
8:59 am 08:59 Cloudy with Light Snow 30 -1.1 26 -3.3 85 85 NE 9 15 30.36 1028 2 3 0.00 0.03
9:01 am 09:01 Cloudy with Light Snow 30 -1.1 26 -3.3 85 85 NE 12 19 30.36 1028 2 3 0.00 0.03
9:12 am 09:12 Cloudy with Light Snow 30 -1.1 26 -3.3 85 85 NNE 12 19 30.36 1028 4 6 0.00 0.03
9:38 am 09:38 Cloudy with Light Snow 31 -0.6 26 -3.3 82 82 NE 12 19 30.39 1029 5 8 0.01 0.25
9:52 am 09:52 Cloudy with Light Snow 31 -0.6 26 -3.3 82 82 NE 12 19 30.36 1028 4 6 0.01 0.25
10:02 am 10:02 Cloudy with Light Snow 31 -0.6 26 -3.3 82 82 NE 12 19 30.36 1028 3 4 0.00 0.03
10:18 am 10:18 Cloudy with Light Snow 31 -0.6 26 -3.3 82 82 NE 12 19 30.36 1028 3 5 0.00 0.03
10:35 am 10:35 Cloudy with Light Snow 31 -0.6 26 -3.3 82 82 NE 12 19 30.36 1028 3 5 0.00 0.03
10:39 am 10:39 Cloudy with Light Snow 31 -0.6 26 -3.3 82 82 NE 10 17 30.36 1028 3 4 0.00 0.03
10:48 am 10:48 Cloudy with Light Snow 30 -1 27 -3 86 86 NE 14 22 30.36 1028 2 3 0.00 0.03
10:52 am 10:52 Cloudy with Light Snow 31 -0.6 27 -2.8 85 85 NE 13 20 30.35 1028 2 3 0.01 0.25
11:10 am 11:10 Cloudy with Light Snow 31 -0.6 27 -2.8 85 85 NE 13 20 30.33 1027 3 4 0.00 0.03
11:13 am 11:13 Cloudy with Light Snow 31 -0.6 27 -2.8 85 85 NE 15 24 30.33 1027 3 5 0.00 0.03
11:52 am 11:52 Cloudy with Light Snow 31 -0.6 27 -2.8 85 85 NNE 13 20 30.30 1026 2 3 0.00 0.03
12:25 pm 12:25 Cloudy with Light Snow 31 -0.6 27 -2.8 85 85 NNE 15 24 30.27 1025 1 2 0.01 0.25
12:52 pm 12:52 Cloudy with Light Snow 31 -0.6 27 -2.8 85 85 NNE 14 22 30.26 1025 1 2 0.04 1.02
1:05 pm 13:05 Cloudy with Light Snow 32 0 27 -2.8 82 82 NNE 14 22 30.27 1025 1 2 0.00 0.03
1:19 pm 13:19 Cloudy with Light Snow 32 0 27 -2.8 82 82 NNE 13 20 30.24 1024 6 10 0.00 0.03
1:52 pm 13:52 Cloudy with Light Snow 32 0 27 -2.8 82 82 NNE 12 19 30.24 1024 4 6 0.01 0.25
2:45 pm 14:45 Cloudy with Light Snow 32 0 27 -2.8 82 82 NNE 15 24 30.24 1024 2 3 0.02 0.51
2:47 pm 14:47 Cloudy with Light Snow 32 0 27 -3 80 80 NNE 13 20 30.24 1024 2 3 0.02 0.51
2:52 pm 14:52 Cloudy with Light Snow 32 0 28 -2.2 85 85 NNE 12 19 30.24 1024 2 2 0.02 0.51
3:05 pm 15:05 Cloudy with Light Snow 32 0 28 -2.2 85 85 NNE 10 17 30.24 1024 1 1 0.02 0.51
3:21 pm 15:21 Mostly Cloudy with Snow 31 -0.6 28 -2.2 89 89 N 14 22 30.24 1024 0 0 0.05 1.27
3:26 pm 15:26 Cloudy with Snow 31 -0.6 28 -2.2 89 89 NNE 13 20 30.24 1024 0 0 0.06 1.52
3:31 pm 15:31 Mostly Cloudy with Snow 31 -0.6 28 -2.2 89 89 NNE 12 19 30.24 1024 1 1 0.07 1.78
3:33 pm 15:33 Mostly Cloudy with Snow 31 -0.6 28 -2.2 89 89 NNE 13 20 30.24 1024 1 1 0.07 1.78
3:52 pm 15:52 Cloudy with Snow 32 0 28 -2.2 85 85 N 10 17 30.24 1024 1 1 0.09 2.29
4:36 pm 16:36 Cloudy with Snow 32 0 28 -2.2 85 85 N 14 22 30.24 1024 1 1 0.05 1.27
4:52 pm 16:52 Cloudy with Snow 31 -0.6 28 -2.2 89 89 N 17 28 30.24 1024 1 1 0.07 1.78
4:54 pm 16:54 Cloudy with Snow 31 -0.6 28 -2.2 89 89 N 15 24 30.24 1024 1 1 0.00 0.03
5:05 pm 17:05 Cloudy with Snow 32 0 28 -2.2 85 85 N 13 20 30.24 1024 1 1 0.01 0.25
5:10 pm 17:10 Cloudy with Snow 32 0 28 -2.2 85 85 N 13 20 30.24 1024 1 1 0.01 0.25
5:13 pm 17:13 Cloudy with Snow 32 0 28 -2.2 85 85 N 14 22 30.24 1024 1 1 0.02 0.51
5:21 pm 17:21 Cloudy with Light Snow 32 0 28 -2.2 85 85 N 13 20 30.24 1024 1 2 0.02 0.51
5:37 pm 17:37 Cloudy with Light Snow 32 0 28 -2.2 85 85 N 10 17 30.24 1024 1 1 0.04 1.02
5:41 pm 17:41 Cloudy with Light Snow 32 0 28 -2.2 85 85 N 10 17 30.24 1024 1 2 0.05 1.27
5:52 pm 17:52 Cloudy with Light Snow 31 -0.6 28 -2.2 89 89 N 12 19 30.25 1025 1 2 0.06 1.52
5:59 pm 17:59 Cloudy with Light Snow 31 -0.6 28 -2.2 89 89 N 14 22 30.27 1025 1 2 0.00 0.03
6:04 pm 18:04 Cloudy with Light Snow 32 0 28 -2.2 85 85 N 12 19 30.27 1025 2 2 0.01 0.25
6:09 pm 18:09 Cloudy with Light Snow 32 0 28 -2.2 85 85 N 12 19 30.27 1025 2 3 0.01 0.25
6:13 pm 18:13 Cloudy with Light Snow 31 -0.6 28 -2.2 89 89 N 12 19 30.27 1025 2 3 0.01 0.25
6:23 pm 18:23 Cloudy with Light Snow 32 0 28 -2.2 85 85 N 14 22 30.27 1025 2 3 0.01 0.25
6:28 pm 18:28 Cloudy with Light Snow 32 0 28 -2.2 85 85 N 14 22 30.27 1025 2 3 0.02 0.51
6:30 pm 18:30 Cloudy with Light Snow 32 0 28 -2.2 85 85 N 12 19 30.27 1025 2 3 0.02 0.51
6:33 pm 18:33 Cloudy with Light Snow 32 0 28 -2.2 85 85 N 13 20 30.27 1025 2 3 0.02 0.51
6:37 pm 18:37 Cloudy with Light Snow 32 0 28 -2.2 85 85 N 12 19 30.27 1025 2 3 0.02 0.51
6:41 pm 18:41 Cloudy with Light Snow 32 0 28 -2.2 85 85 N 13 20 30.27 1025 2 2 0.02 0.51
6:52 pm 18:52 Cloudy with Light Snow 32 0 28 -2.2 85 85 N 10 17 30.26 1025 1 2 0.03 0.76
6:58 pm 18:58 Cloudy with Light Snow 32 0 28 -2.2 85 85 N 10 17 30.27 1025 1 2 0.00 0.03
7:20 pm 19:20 Cloudy with Light Snow 31 -0.6 28 -2.2 89 89 N 15 24 30.27 1025 1 1 0.03 0.76
7:33 pm 19:33 Cloudy with Light Snow 31 -0.6 28 -2.2 89 89 N 13 20 30.27 1025 1 1 0.05 1.27
7:39 pm 19:39 Mostly Cloudy with Light Snow 31 -0.6 28 -2.2 89 89 N 10 17 30.27 1025 1 2 0.06 1.52
7:41 pm 19:41 Cloudy with Light Snow 31 -0.6 28 -2.2 89 89 N 10 17 30.27 1025 1 2 0.06 1.52
7:52 pm 19:52 Cloudy with Light Snow 31 -0.6 28 -2.2 89 89 N 13 20 30.27 1025 2 2 0.07 1.78
7:58 pm 19:58 Cloudy with Light Snow 31 -0.6 28 -2.2 89 89 N 13 20 30.27 1025 2 3 0.00 0.03
8:04 pm 20:04 Cloudy with Light Snow 31 -0.6 28 -2.2 89 89 N 14 22 30.27 1025 2 3 0.00 0.03
8:11 pm 20:11 Cloudy with Light Snow 31 -0.6 27 -2.8 85 85 N 13 20 30.27 1025 2 3 0.00 0.03
8:15 pm 20:15 Cloudy with Light Snow 31 -0.6 27 -2.8 85 85 N 13 20 30.27 1025 2 3 0.00 0.03
8:22 pm 20:22 Cloudy with Light Snow 31 -0.6 27 -2.8 85 85 N 12 19 30.27 1025 3 4 0.00 0.03
8:39 pm 20:39 Cloudy with Light Snow 31 -0.6 26 -3.3 82 82 N 15 24 30.27 1025 3 5 0.00 0.03
8:52 pm 20:52 Cloudy with Light Snow 31 -0.6 26 -3.3 82 82 NNE 14 22 30.28 1026 3 5 0.00 0.03
8:54 pm 20:54 Cloudy with Light Snow 31 -0.6 26 -3.3 82 82 N 18 30 30.30 1026 3 5 0.00 0.03
8:58 pm 20:58 Cloudy with Light Snow 31 -0.6 26 -3.3 82 82 N 14 22 30.30 1026 3 5 0.01 0.25
9:02 pm 21:02 Cloudy with Light Snow 31 -0.6 26 -3.3 82 82 N 14 22 30.30 1026 3 5 0.01 0.25
9:09 pm 21:09 Cloudy with Light Snow 31 -0.6 25 -3.9 79 79 NNE 15 24 30.30 1026 3 5 0.01 0.25
9:14 pm 21:14 Cloudy with Light Snow 30 -1.1 25 -3.9 82 82 N 17 28 30.30 1026 3 5 0.01 0.25

Powered by AerisWeather